星链-5044 (STARLINK-5044 )

导读 | 星芒AI

STARLINK-5044 是 SpaceX 星链计划中的一颗低轨通信卫星,属于第 15 批组网发射的星链卫星之一。该卫星运行在约 550 公里的近地轨道,旨在为全球用户提供高速互联网服务。星链系统通过部署大量卫星,构建覆盖全球的宽带网络,特别服务于偏远地区。STARLINK-5044 采用先进推进和通信技术,具备自动避障能力,有助于提升网络稳定性和覆盖效率。

基本信息
目录编号:
53898
目录名称:
STARLINK-5044
国际标识:
2022-119N
轨道中心:
EARTH
卫星名称:
星链-5044
卫星全名:
星链-5044 (STARLINK-5044 )
卫星状态:
在轨 (已飞行1184 天)
发射日期:
2022-09-24 UTC
国别 :
美国 (US)
星等 :
--
轨道信息
数据来源 国际轨道数据
星历时间: 2025-12-21T11:54:15+0800
6小时前
查看轨道信息
半长轴: 6917.884km
偏心率: 0.0001631
轨道倾角: 53.220°
近地点辐角 86.387°
升交点赤经 316.361°
平近点角 273.731°
近地点: 538.618km
远地点: 540.876km
周期: 95.438分钟
每日圈数: 15.08839
详细信息
固有亮度:
5
最大亮度:
2.5
卫星平台:
Starlink v1.5
覆盖范围:
全球
运营商:
太空探索技术公司
运营商所在国:
美国
制造商(研发单位):
太空探索技术公司
制造商所在国:
美国
使用方式:
暂无
卫星简介
星链(Starlink)计划是由太空探索技术公司(SpaceX)提出的一个巨型低轨卫星互联网星座项目,计划在2019年至2024年间在太空搭建由约1.2万颗卫星组成的“星链”网络,其中1584颗将部署在地球上空550千米处的近地轨道,并从2020年开始工作。该卫星仍在工作。
2D轨道图
3D轨道图
轨道高度分析图
轨道倾角分析图
轨道综合分析图
查看轨道综合分析图